Weather History for Beaumont / Port Arthur, TX

Change the Weather History Date:

Thursday, September 12, 2013

  Actual Average (KBPT) Record (KBPT)
Temperature  
Mean Temperature 82 °F 80 °F  
Max Temperature 94 °F 89 °F 99 °F (1909)
Min Temperature 72 °F 71 °F 56 °F (1940)
Degree Days  
Heating Degree Days 0 0  
Month to date heating degree days 0  
Since 1 July heating degree days 0  
Cooling Degree Days 18 15  
Month to date cooling degree days 193  
Year to date cooling degree days 2360  
Growing Degree Days 32 (Base 50)    
Moisture  
Dew Point 34 °F    
Average Humidity 40    
Maximum Humidity 100    
Minimum Humidity 4    
Precipitation  
Precipitation 0.00 in 0.22 in 3.31 in (2003)
Month to date precipitation 2.55  
Year to date precipitation 41.78  
Snow  
Snow 0.00 in 0.00 in 0.00 in ()
Month to date snowfall 0.0  
Since 1 July snowfall 0.0  
Since 1 September snowfall 0.0  
Snow Depth -    
Sea Level Pressure  
Sea Level Pressure 29.99 in    
Wind  
Wind Speed 3 mph (East)    
Max Wind Speed 13 mph    
Max Gust Speed 16 mph    
Visibility 10 miles    
Events      
T = Trace of Precipitation, MM = Missing Value Source: NWS Daily Summary

Daily Weather History Graph

Daily Weather History Graph

Search for Another Location

Airport:

Trip Planner

Search our weather history database for the weather conditions in past years. The results will help you decide how hot, cold, wet, or windy it might be!

Date:

Astronomy

Sep. 12, 2013 Rise Set
Actual Time 6:59 AM CDT 7:25 PM CDT
Civil Twilight 6:35 AM CDT 7:49 PM CDT
Nautical Twilight 6:07 AM CDT 8:17 PM CDT
Astronomical Twilight 5:39 AM CDT 8:46 PM CDT
Moon 2:00 PM CDT (9/12) No Moon Set
Length of Visible Light 13h 13m
Length of Day
12h 25m
Waxing Crescent, 50% of the Moon is Illuminated
Sep 12
Waxing Crescent
Sep 12
First Quarter
Sep 19
Full
Sep 26
Last Quarter
Oct 4
New

Hourly Weather History & Observations

Time (CDT) Temp. Heat Index Dew Point Humidity Pressure Visibility Wind Dir Wind Speed Gust Speed Precip Events Conditions
12:15 AM 75.6 °F - 75.6 °F 100% 30.03 in 10.0 mi Calm Calm - N/A   Clear
12:35 AM 75.4 °F - 75.4 °F 100% 30.03 in 10.0 mi Calm Calm - N/A   Clear
12:55 AM 76.1 °F - 76.1 °F 100% 30.02 in 10.0 mi Calm Calm - N/A   Clear
1:15 AM 76.1 °F - 76.1 °F 100% 30.02 in 10.0 mi Calm Calm - N/A   Clear
1:35 AM 76.1 °F - 76.1 °F 100% 30.02 in 10.0 mi Calm Calm - N/A   Clear
1:55 AM 75.6 °F - 75.6 °F 100% 30.02 in 10.0 mi Calm Calm - N/A   Clear
2:15 AM 75.7 °F - 75.7 °F 100% 30.02 in 10.0 mi Calm Calm - N/A   Scattered Clouds
2:35 AM 74.3 °F - 74.3 °F 100% 30.02 in 10.0 mi NW 3.5 mph - N/A   Scattered Clouds
2:55 AM 73.9 °F - 73.9 °F 100% 30.02 in 10.0 mi NNW 3.5 mph - N/A   Clear
3:15 AM 73.9 °F - 73.9 °F 100% 30.02 in 10.0 mi NNW 3.5 mph - N/A   Scattered Clouds
3:35 AM 73.9 °F - 73.9 °F 100% 30.02 in 10.0 mi Calm Calm - N/A   Scattered Clouds
3:55 AM 73.8 °F - 73.8 °F 100% 30.02 in 10.0 mi Calm Calm - N/A   Scattered Clouds
4:15 AM 73.4 °F - 73.4 °F 100% 30.02 in 10.0 mi Calm Calm - N/A   Scattered Clouds
4:35 AM 73.0 °F - 73.0 °F 100% 30.02 in 7.0 mi Calm Calm - N/A   Scattered Clouds
4:55 AM 72.7 °F - 72.7 °F 100% 30.02 in 7.0 mi Calm Calm - N/A   Clear
5:15 AM 72.9 °F - 63.0 °F 71% 30.02 in 7.0 mi Calm Calm - N/A   Clear
5:35 AM 72.9 °F - 62.8 °F 71% 30.02 in 7.0 mi Calm Calm - N/A   Clear
5:55 AM 72.5 °F - 61.9 °F 69% 30.02 in 5.0 mi North 3.5 mph - N/A   Haze
6:15 AM 73.8 °F - 63.5 °F 70% 30.02 in 10.0 mi NNE 4.6 mph - N/A   Clear
6:35 AM 73.8 °F - 63.5 °F 70% 30.02 in 10.0 mi NNE 4.6 mph - N/A   Clear
6:55 AM 73.6 °F - 62.8 °F 69% 30.02 in 7.0 mi North 4.6 mph - N/A   Clear
7:15 AM 73.6 °F - 63.0 °F 69% 30.03 in 7.0 mi NE 5.8 mph - N/A   Clear
7:35 AM 74.7 °F - 63.5 °F 68% 30.03 in 10.0 mi NE 3.5 mph - N/A   Clear
7:55 AM 75.7 °F - 63.7 °F 66% 30.03 in 10.0 mi NE 6.9 mph - N/A   Clear
8:15 AM 77.5 °F - 64.0 °F 63% 30.04 in 10.0 mi NE 5.8 mph - N/A   Clear
8:35 AM 79.5 °F - 62.4 °F 56% 30.04 in 10.0 mi NE 4.6 mph - N/A   Clear
8:55 AM 80.6 °F 81.7 °F 62.2 °F 53% 30.04 in 10.0 mi NE 8.1 mph - N/A   Clear
9:15 AM 82.2 °F 82.9 °F 61.2 °F 49% 30.04 in 10.0 mi NE 5.8 mph - N/A   Clear
9:35 AM 83.8 °F 83.6 °F 59.4 °F 43% 30.04 in 10.0 mi ENE 6.9 mph - N/A   Clear
9:55 AM 85.1 °F 84.4 °F 58.1 °F 40% 30.05 in 10.0 mi NNE 11.5 mph - N/A   Clear
10:15 AM 86.2 °F 84.9 °F 56.3 °F 36% 30.05 in 10.0 mi NNE 9.2 mph - N/A   Clear
10:35 AM 87.8 °F 86.3 °F 55.8 °F 34% 30.05 in 10.0 mi ENE 8.1 mph - N/A   Clear
10:55 AM 88.2 °F 86.3 °F 54.9 °F 32% 30.05 in 10.0 mi ENE 8.1 mph - N/A   Clear
11:15 AM 88.9 °F 86.9 °F 54.5 °F 31% 30.05 in 10.0 mi East 9.2 mph - N/A   Clear
11:35 AM 89.8 °F - 30.7 °F 12% 30.05 in 10.0 mi ENE 10.4 mph - N/A   Clear
11:55 AM 89.8 °F - 14.7 °F 6% 30.04 in 10.0 mi East 6.9 mph - N/A   Clear
12:15 PM 90.7 °F - 18.1 °F 7% 30.04 in 10.0 mi ENE 8.1 mph - N/A   Clear
12:35 PM 90.9 °F - 21.0 °F 8% 30.03 in 10.0 mi East 10.4 mph 16.1 mph N/A   Clear
12:55 PM 91.6 °F - 22.3 °F 8% 30.02 in 10.0 mi East 10.4 mph - N/A   Clear
1:15 PM 91.2 °F - 20.5 °F 8% 30.02 in 10.0 mi East 6.9 mph - N/A   Clear
1:35 PM 92.3 °F - 20.5 °F 7% 30.01 in 10.0 mi East 10.4 mph - N/A   Clear
1:55 PM 92.5 °F - 13.5 °F 5% 30.00 in 10.0 mi East 12.7 mph - N/A   Clear
2:15 PM 93.4 °F - -8.1 °F 4% 29.99 in 10.0 mi East 5.8 mph - N/A   Clear
2:35 PM 93.9 °F - -5.8 °F 4% 29.98 in 10.0 mi East 5.8 mph - N/A   Clear
2:55 PM 93.7 °F - -4.2 °F 4% 29.97 in 10.0 mi East 10.4 mph - N/A   Clear
3:15 PM 92.5 °F - -6.9 °F 4% 29.96 in 10.0 mi SE 9.2 mph - N/A   Clear
3:35 PM - - - N/A% 29.95 in 10.0 mi East 9.2 mph - N/A   Clear
3:55 PM - - - N/A% 29.94 in 10.0 mi ESE 9.2 mph - N/A   Clear
4:15 PM - - - N/A% 29.94 in 10.0 mi East 12.7 mph - N/A   Clear
4:35 PM 91.0 °F - -9.9 °F 4% 29.93 in 10.0 mi SE 8.1 mph - N/A   Scattered Clouds
4:55 PM 93.2 °F - -5.3 °F 4% 29.93 in 10.0 mi ESE 8.1 mph 16.1 mph N/A   Scattered Clouds
5:15 PM 92.3 °F - -10.1 °F 4% 29.92 in 10.0 mi SE 8.1 mph - N/A   Scattered Clouds
5:35 PM 91.4 °F - -10.5 °F 4% 29.92 in 10.0 mi SE 5.8 mph - N/A   Scattered Clouds
5:55 PM 91.4 °F - -8.7 °F 4% 29.91 in 10.0 mi ESE 4.6 mph - N/A   Clear
6:15 PM 90.1 °F - -8.7 °F 4% 29.92 in 10.0 mi SSE 8.1 mph - N/A   Clear
6:35 PM 88.7 °F - -8.3 °F 4% 29.91 in 10.0 mi South 5.8 mph - N/A   Clear
6:55 PM 87.1 °F - -9.4 °F 4% 29.92 in 10.0 mi SSE 9.2 mph - N/A   Clear
7:15 PM 85.3 °F - -11.0 °F 4% 29.92 in 10.0 mi SSE 5.8 mph - N/A   Clear
7:35 PM 83.5 °F - -6.3 °F 4% 29.93 in 10.0 mi SSE 5.8 mph - N/A   Clear
7:55 PM 82.0 °F - -5.3 °F 4% 29.93 in 10.0 mi South 4.6 mph - N/A   Clear
8:15 PM 81.0 °F - -4.5 °F 4% 29.94 in 10.0 mi SSW 4.6 mph - N/A   Clear
8:35 PM 79.3 °F - -2.7 °F 4% 29.93 in 10.0 mi South 4.6 mph - N/A   Clear
8:55 PM 79.2 °F - -4.7 °F 4% 29.94 in 10.0 mi South 3.5 mph - N/A   Clear
9:15 PM 79.3 °F - -5.8 °F 4% 29.94 in 10.0 mi Calm Calm - N/A   Clear
9:35 PM 77.9 °F - -3.5 °F 4% 29.94 in 10.0 mi Calm Calm - N/A   Clear
9:55 PM 75.7 °F - 4.5 °F 6% 29.95 in 10.0 mi Calm Calm - N/A   Clear
10:15 PM 75.2 °F - 8.4 °F 8% 29.95 in 10.0 mi Calm Calm - N/A   Scattered Clouds
10:35 PM 75.2 °F - 9.5 °F 8% 29.94 in 10.0 mi Calm Calm - N/A   Scattered Clouds
10:55 PM 75.7 °F - 10.4 °F 8% 29.94 in 10.0 mi Calm Calm - N/A   Clear
11:15 PM 74.1 °F - 7.5 °F 8% 29.95 in 10.0 mi Calm Calm - N/A   Clear
11:35 PM 74.3 °F - 8.2 °F 8% 29.95 in 10.0 mi Calm Calm - N/A   Clear
11:55 PM 73.8 °F - 6.1 °F 7% 29.95 in 10.0 mi Calm Calm - N/A   Clear